RH
68 85 86 83 80 77 53 48 39 48 26 19 22 28 27 37 22 38 38 41 46 48 40 47 52 50 26 3 21 62 62 51 38 38 39 37 28 12 4 2 6 8 10 17
96 82 96 100 94 80 62 49 46 38 26 21 23 30 37 35 20 40 35 38 39 38 43 46 38 8 30 46 61 62 51 43 41 40 34 17 7 3 8 12 19 28 34 39
68 81 100 97 94 80 65 54 46 35 27 23 25 30 43 28 24 41 46 46 45 47 38 16 4 26 47 58 56 49 43 42 41 28 16 8 10 12 18 34 43 48 50 48
90 100 95 97 96 78 65 55 47 42 30 28 26 28 57 21 17 38 44 44 49 47 14 8 21 30 36 44 45 43 42 40 29 15 9 10 17 31 41 48 52 47 35 27
98 88 85 96 81 82 68 56 47 46 33 29 29 30 56 44 6 22 41 50 49 43 20 27 35 37 37 38 38 40 39 33 20 12 13 22 38 49 55 50 34 23 23 23
100 100 98 94 92 92 67 59 56 50 42 30 43 31 53 45 14 10 22 39 42 25 23 27 28 33 38 38 37 39 31 23 13 17 30 43 52 51 42 29 24 20 14 14
99 88 94 84 88 84 66 63 63 62 47 31 38 36 46 38 28 9 10 15 14 12 18 20 22 25 27 28 27 24 18 16 19 29 54 53 44 30 26 26 17 16 20 20
96 94 80 64 94 71 71 63 67 73 47 39 37 32 36 36 36 19 8 10 11 11 14 14 17 22 23 21 17 15 19 32 49 52 42 32 24 28 26 19 21 20 19 18
83 71 73 84 98 89 89 69 78 52 50 43 39 32 30 40 38 35 25 7 7 12 13 15 17 19 17 14 16 26 42 48 40 33 29 28 26 22 21 21 21 21 18 18
92 70 60 82 92 94 90 81 72 54 56 38 34 34 31 35 34 32 27 18 6 8 15 17 18 15 12 20 41 48 43 37 35 33 26 22 23 22 21 20 19 19 18 18
80 83 71 71 65 71 69 59 62 75 61 38 28 33 38 33 26 22 12 6 6 10 11 13 12 15 38 53 48 43 40 37 27 21 26 24 21 20 19 20 20 21 22 21
81 78 83 73 68 73 64 68 99 68 54 47 42 47 39 21 14 8 1 5 16 21 26 30 43 58 58 48 45 44 31 25 27 27 23 19 19 21 22 24 24 23 24 24
90 81 69 73 74 66 59 51 53 57 44 35 37 34 33 19 4 3 10 19 35 54 63 64 59 51 49 49 39 27 27 27 24 22 21 23 24 25 26 27 26 26 25 24
93 87 77 65 59 63 52 46 49 56 45 42 40 47 11 1 2 14 28 48 60 72 68 51 47 47 44 28 26 26 24 24 25 26 27 29 29 30 32 30 29 28 27 24
66 64 63 60 55 55 56 72 97 78 65 61 56 18 2 2 17 31 47 66 74 63 51 45 51 37 25 26 24 25 29 31 33 33 34 35 36 36 35 34 32 30 26 24
72 78 69 66 61 64 69 60 61 57 65 67 34 1 7 23 31 43 62 71 64 50 40 60 50 47 32 24 30 36 40 40 40 41 41 42 42 42 40 37 34 29 27 23
78 85 92 91 93 81 60 73 85 90 85 43 8 7 14 31 41 57 64 59 47 46 63 66 42 25 27 37 44 46 45 47 47 47 47 49 49 46 42 38 32 29 26 22
92 95 100 100 99 87 85 96 90 83 57 17 10 14 28 43 67 57 50 60 69 68 57 31 27 34 45 47 48 48 50 51 52 53 52 52 52 47 41 35 33 29 26 22
99 98 99 98 95 91 91 81 41 26 26 26 32 46 62 73 61 70 77 76 71 48 27 28 40 49 49 50 51 52 55 55 56 56 56 56 52 44 38 36 33 28 23 18
87 94 94 94 95 90 80 73 68 56 43 57 77 96 92 88 76 68 72 71 48 27 33 46 50 50 52 52 54 56 58 59 61 63 61 56 47 42 40 36 29 21 14 13
92 91 98 98 93 90 92 93 97 97 88 96 94 88 80 79 68 62 67 50 30 35 47 50 50 49 52 53 55 60 59 63 64 62 59 50 48 44 39 31 22 17 15 13
100 97 96 94 83 76 89 78 83 81 74 81 92 86 71 56 56 59 38 31 39 47 48 48 48 51 51 58 63 59 61 64 65 64 56 53 51 44 35 25 20 17 14 18
99 98 100 82 80 86 89 87 84 75 50 42 41 44 58 48 34 31 39 46 46 46 47 48 49 51 64 64 59 61 68 71 69 60 58 56 49 39 29 23 18 15 18 31
59 56 48 51 49 68 86 79 74 83 82 52 36 30 31 35 40 43 43 44 46 48 49 48 50 67 66 59 60 65 71 70 64 63 60 53 42 33 26 20 16 16 32 63
68 78 86 87 87 84 70 66 64 55 42 33 32 34 37 41 44 43 45 48 50 50 48 52 69 69 66 65 67 71 70 68 64 61 54 44 35 30 21 16 15 24 67 74
58 61 59 58 61 67 75 77 77 69 49 43 42 45 49 45 46 48 49 49 47 47 61 68 71 68 70 74 72 69 66 60 56 51 44 38 33 23 17 15 21 58 71 71
Wind_Speed
66 61 61 53 52 43 35 35 34 34 38 34 33 26 32 23 18 18 17 20 22 24 25 25 27 29 29 25 25 26 23 23 24 26 31 34 39 40 39 36 34 33 34 34
64 62 54 47 46 42 38 37 35 35 34 32 31 24 30 23 20 20 19 19 22 25 26 29 30 24 20 21 22 23 23 24 27 30 34 36 37 35 33 33 34 36 37 39
64 57 50 46 47 44 39 36 32 34 35 32 29 26 29 23 22 21 20 20 22 24 27 27 22 21 16 19 24 27 27 28 30 32 34 34 32 32 34 37 39 40 41 43
61 47 52 45 44 41 37 31 33 34 35 30 27 25 26 22 23 24 23 23 24 23 23 22 22 22 22 21 25 27 30 33 34 35 34 34 34 36 39 41 42 43 45 45
55 50 48 47 37 37 33 33 35 33 31 28 25 26 23 25 24 26 26 27 26 24 23 21 22 24 24 24 26 28 31 33 35 34 34 35 38 41 42 42 43 42 43 44
47 46 46 41 38 36 35 35 33 28 29 27 21 24 26 22 21 26 28 27 27 26 23 23 23 25 27 28 29 30 31 33 35 35 36 38 40 40 41 41 41 41 44 47
45 50 43 40 39 38 38 35 31 27 27 22 22 25 19 20 20 24 27 27 24 25 25 25 26 28 31 30 29 31 33 35 35 37 38 38 39 38 37 38 42 45 48 50
54 48 47 46 44 44 40 34 30 27 24 24 20 23 19 21 23 23 25 23 21 24 25 26 28 30 30 30 30 32 34 35 37 37 35 35 35 37 40 43 45 48 51 54
52 49 49 45 36 38 37 36 31 26 23 23 20 19 23 20 22 24 26 25 25 28 28 28 29 30 30 31 32 33 35 36 34 33 34 36 38 41 43 46 51 54 58 62
48 47 49 47 41 37 41 32 33 30 25 19 19 17 23 24 24 25 25 27 30 30 27 27 29 32 33 32 33 35 34 34 34 35 37 39 41 45 49 54 57 61 65 69
46 44 44 43 42 35 32 34 31 28 27 22 22 19 20 23 24 25 27 28 28 26 25 28 30 31 31 34 35 34 34 34 35 36 39 43 47 52 56 58 61 64 68 71
40 43 44 40 37 34 34 32 32 30 28 25 23 19 20 22 23 24 26 24 22 23 24 27 29 30 33 35 35 34 33 34 37 41 46 50 53 56 59 62 65 69 70 71
35 37 41 43 44 40 37 35 35 29 26 27 27 21 20 22 22 22 21 20 21 22 24 27 29 31 32 33 33 33 35 39 43 48 51 53 56 59 62 65 66 67 69 73
33 35 33 33 32 31 31 29 28 29 30 26 22 19 19 23 25 23 20 21 23 24 26 28 29 30 30 31 34 37 40 44 48 52 54 56 59 61 62 64 66 70 75 79
31 34 35 35 33 35 36 36 34 32 26 27 17 23 26 26 23 22 23 23 24 26 28 29 28 28 30 34 38 42 45 49 51 54 57 59 60 63 65 67 71 75 79 82
25 27 31 34 36 34 33 34 35 33 31 27 23 23 23 24 24 23 24 25 27 29 29 29 30 33 36 39 42 46 49 52 54 56 58 60 63 65 68 72 75 78 82 86
19 19 22 28 30 33 36 31 32 30 27 26 25 20 26 25 24 25 26 28 29 28 29 31 33 36 39 42 45 48 52 55 56 59 61 63 65 68 71 75 78 81 85 87
21 19 20 29 29 31 27 26 27 27 27 26 24 24 26 25 25 26 26 26 27 28 32 33 36 38 41 45 49 52 54 57 59 62 64 65 68 71 74 78 80 84 86 89
28 27 25 30 29 25 24 22 23 24 25 26 25 25 27 28 26 27 26 28 30 32 33 35 38 41 45 49 52 54 56 59 62 64 65 68 70 73 76 79 82 85 87 90
31 24 25 26 30 28 21 19 19 22 24 24 25 29 31 33 29 26 28 31 32 33 34 37 42 46 49 52 55 58 60 62 63 65 67 69 72 74 78 82 83 86 88 87
26 23 23 30 28 25 24 22 24 23 23 29 30 31 26 22 25 29 32 33 33 35 38 42 46 50 53 56 59 61 63 63 65 67 69 71 73 77 81 82 85 86 88 83
21 21 19 21 24 25 24 28 29 30 27 25 25 24 26 29 31 33 33 34 37 39 44 47 51 53 57 61 63 65 65 65 66 68 69 72 76 80 81 84 86 87 84 78
19 21 20 27 26 21 18 21 21 23 27 26 27 28 28 28 30 32 34 38 41 45 49 51 54 58 63 65 66 66 64 65 67 68 70 74 78 80 84 87 88 83 79 74
19 19 21 21 22 22 21 21 23 24 24 24 24 26 27 30 33 36 40 44 47 49 52 55 59 64 66 67 66 64 65 66 66 68 72 76 78 82 86 87 84 79 74 69
19 18 18 19 21 23 24 24 25 26 26 26 28 30 33 35 39 42 45 48 50 53 56 60 65 67 69 67 65 65 64 65 68 72 75 78 81 86 86 83 79 74 68 69
23 23 24 23 23 24 25 27 29 30 31 33 35 37 39 41 43 46 48 51 53 56 61 66 69 70 66 63 63 63 65 68 71 74 77 82 86 87 85 81 72 67 66 67
Wind_Direction
199 203 206 208 208 209 210 212 216 219 225 222 228 222 230 228 232 240 230 230 235 244 252 256 263 273 280 280 274 276 273 272 280 285 290 294 295 295 295 294 293 293 292 292
199 203 204 206 203 205 211 213 221 222 225 226 228 220 229 227 223 230 224 223 233 245 252 258 267 266 269 275 273 272 271 275 285 292 296 296 295 294 293 294 293 292 293 293
198 201 201 204 202 202 208 215 221 225 226 227 227 221 225 224 219 224 220 229 240 250 260 264 257 254 266 278 278 275 280 287 293 296 297 295 294 294 293 294 296 296 297 298
198 196 201 199 198 200 207 213 221 224 226 226 226 216 220 225 222 224 225 234 243 255 263 256 253 259 264 265 269 279 287 294 298 299 296 295 295 295 296 298 299 301 301 302
193 196 202 200 199 200 199 211 220 221 226 222 224 219 218 230 224 231 232 237 244 255 256 254 257 262 268 270 273 280 288 293 295 293 292 293 295 298 300 301 303 302 302 302
185 191 199 196 197 196 197 210 216 218 223 219 221 223 206 226 233 231 239 244 248 253 254 258 261 266 269 272 278 284 287 289 291 291 293 296 298 298 300 302 301 303 305 305
180 199 198 195 197 198 200 207 210 214 221 211 214 224 216 227 233 237 242 245 251 257 258 258 262 266 271 277 284 288 290 291 293 295 298 299 300 300 298 299 302 303 305 307
185 187 193 198 193 200 205 211 214 213 216 213 212 229 240 237 246 242 244 245 247 249 254 260 265 269 275 282 285 289 291 295 298 298 297 299 297 297 300 301 303 304 305 308
195 200 194 195 196 192 203 212 215 222 216 220 218 226 245 236 244 251 255 254 254 255 260 264 272 276 278 283 288 291 294 298 298 297 298 297 299 301 303 304 307 311 312 313
195 202 201 205 212 207 206 207 218 217 220 226 229 230 240 247 247 253 257 260 260 261 265 270 272 275 281 287 291 293 297 298 297 298 299 301 303 304 306 310 312 314 314 314
195 198 204 207 208 209 213 215 219 219 230 231 236 243 242 252 255 253 256 258 259 264 268 269 273 279 289 293 293 297 297 298 298 301 301 304 307 308 310 313 314 313 313 312
198 199 204 208 210 211 217 216 215 223 232 236 241 245 250 253 257 258 253 251 259 262 268 276 283 289 290 294 298 301 299 300 302 301 305 306 308 310 312 313 313 312 312 312
200 201 208 211 211 210 213 217 221 225 236 236 238 239 253 253 255 254 251 251 256 268 276 281 285 289 296 299 299 299 300 301 303 304 306 309 310 311 311 310 310 312 312 312
205 206 210 214 214 217 223 229 226 232 236 239 234 243 254 248 246 248 251 258 266 275 279 282 287 292 296 296 297 300 302 303 305 307 308 309 309 309 308 311 312 312 312 314
205 205 209 212 211 216 218 225 231 236 234 236 230 238 242 244 246 246 254 265 273 278 280 285 290 294 296 299 301 302 304 305 306 308 308 308 308 309 311 311 311 313 314 313
202 205 209 214 216 211 215 215 218 218 226 234 241 244 247 248 249 255 265 272 275 277 281 289 296 298 296 297 301 304 306 306 307 306 307 308 308 309 309 310 313 313 313 315
205 202 214 214 218 221 216 212 217 227 236 245 247 242 245 254 261 264 268 270 273 278 285 289 288 291 295 301 303 304 305 304 305 307 308 308 309 309 310 312 313 313 315 318
199 207 211 214 214 216 210 220 230 236 241 248 253 251 254 257 259 261 266 273 280 284 283 284 289 296 300 302 303 304 304 306 307 307 308 309 309 310 312 312 313 316 318 319
199 199 222 221 222 215 217 228 238 243 243 248 254 257 256 257 260 264 267 272 275 279 283 288 295 299 301 302 304 305 306 307 307 308 308 308 309 310 311 313 316 318 320 323
213 221 211 220 225 226 220 227 239 249 252 257 258 258 259 256 252 259 265 271 276 280 287 294 298 300 301 304 306 306 307 307 307 307 307 308 309 310 313 316 318 321 325 323
220 222 225 222 223 228 229 226 239 261 261 256 255 260 268 263 259 263 270 274 279 286 292 295 297 301 304 305 306 307 307 307 307 307 307 308 310 313 315 319 322 324 323 320
213 217 219 228 234 240 236 243 254 256 259 262 257 257 256 258 262 267 271 277 283 289 293 296 300 304 304 305 307 307 307 306 306 307 308 311 313 315 318 321 323 322 320 317
227 224 231 229 239 245 237 236 240 245 252 257 258 259 260 261 265 271 277 282 287 291 294 299 303 304 306 306 307 307 306 306 305 307 310 313 314 317 321 322 322 319 317 316
229 234 235 240 247 250 250 248 250 248 251 252 254 258 262 268 273 277 282 286 289 294 299 301 303 305 306 306 305 305 304 304 306 309 311 313 316 319 321 321 319 317 316 317
234 245 248 249 251 249 250 250 251 255 257 261 264 266 269 273 278 282 285 289 294 297 299 302 304 303 304 304 303 303 304 307 310 311 314 316 318 319 319 318 317 316 317 318
237 241 243 246 253 256 256 257 259 259 260 264 267 270 273 278 281 285 289 292 294 298 300 301 301 304 303 303 305 306 308 311 313 314 315 317 317 317 317 316 316 318 318 318